Location: Washington
(38.8950°N, 77.0370°W)
Time: 04:50:29
(UTC-04:00)

Daily predictions for brighter satellites

Satellite Brightness Start Highest point End
(mag) Time Altitude Azimuth Time Altitude Azimuth Time Altitude Azimuth
Lacrosse 5 4.1 00:07:57 10° NW 00:09:43 22° NNW 00:09:43 22° NNW
Cosmos 1943 Rocket 4.2 00:34:06 10° NNW 00:36:08 22° NW 00:36:08 22° NW
ADEOS Rocket 4.1 01:17:20 10° N 01:21:59 44° N 01:21:59 44° N
Lacrosse 4 Rocket 4.4 02:03:43 10° N 02:05:06 15° NNE 02:05:06 15° NNE
Lacrosse 5 rocket 4.2 02:35:45 16° NE 02:35:45 16° NE 02:36:37 10° NE
CZ-2D R/B 3.3 02:43:23 10° NNE 02:47:19 39° ENE 02:47:19 39° ENE
SL-16 R/B 2.9 02:51:48 60° ENE 02:51:54 60° ENE 02:58:04 10° N
Cosmos 1980 Rocket 3.4 02:51:28 10° N 02:56:41 38° ENE 02:58:11 32° E
Cosmos 1697 Rocket 3.4 02:53:34 10° NNW 02:57:47 49° N 02:57:47 49° N
Cosmos 2082 Rocket 2.8 03:06:40 52° N 03:06:40 52° N 03:11:01 10° NNE
ADEOS II 4.5 03:06:15 10° ENE 03:09:08 15° E 03:11:24 12° ESE
H-2A R/B 4.3 03:08:52 10° N 03:10:57 28° N 03:10:57 28° N
ATLAS 3B R/B 4.0 03:16:15 28° SE 03:18:00 31° ESE 03:24:01 10° NE
Resurs 1-4 Rocket 2.4 03:19:10 10° N 03:23:33 62° N 03:23:33 62° N
Cosmos 1634 Rocket 3.9 03:24:53 80° NW 03:24:53 80° NW 03:30:59 10° N
Cosmos 1763 Rocket 4.2 03:34:40 43° ESE 03:35:10 45° ESE 03:40:12 10° NNE
NPP 4.4 03:30:22 10° N 03:34:34 41° NW 03:34:34 41° NW
Cosmos 1892 Rocket 4.3 03:38:18 48° ENE 03:38:18 48° ENE 03:42:14 10° NNE
Cosmos 2279 Rocket 4.0 03:36:56 61° SSE 03:38:02 76° E 03:44:18 10° N
Cosmos 1833 Rocket 3.7 03:41:36 33° NW 03:41:36 33° NW 03:46:18 10° N
USA 215 4.2 03:37:49 10° ENE 03:43:45 36° SE 03:45:35 31° SSE
Cosmos 2208 Rocket 4.1 03:46:29 63° NW 03:46:29 63° NW 03:51:23 10° NNE
Cosmos 2026 Rocket 3.9 03:42:25 10° NNW 03:48:47 71° W 03:49:30 65° SW
Cosmos 1898 Rocket 3.5 03:46:01 10° NNW 03:51:15 79° ENE 03:52:29 53° SE
SEDSat Delta rocket 4.4 03:53:46 43° SSE 03:53:46 43° SSE 03:59:41 10° ESE
Cosmos 1805 4.3 03:54:47 10° N 03:58:32 43° E 03:59:11 39° ESE
BREEZE-M R/B 3.3 04:00:43 54° NE 04:00:43 54° NE 04:04:41 10° NE
Cosmos 1937 Rocket 3.7 03:56:23 10° NNW 04:01:35 69° ENE 04:05:30 17° SSE
Cosmos 1766 3.7 04:01:49 10° N 04:04:58 57° N 04:04:58 57° N
Cosmos 858 Rocket 4.4 04:01:01 10° NNW 04:06:15 87° ENE 04:08:44 32° SSE
Cosmos 724 4.2 04:05:14 59° WSW 04:06:18 76° WNW 04:12:07 10° NNE
Cosmos 2360 4.2 04:01:26 10° NNW 04:07:01 57° WSW 04:07:09 57° WSW
Timation 2 Rocket 3.8 04:07:41 47° SSW 04:09:33 82° ESE 04:15:33 10° NNE
Lacrosse 5 rocket 3.5 04:11:25 16° NW 04:12:02 17° NNW 04:14:44 10° N
Cosmos 468 Rocket 4.3 04:12:08 48° W 04:12:36 50° WNW 04:17:46 10° N
ARIANE 5 R/B 2.9 04:08:20 10° N 04:13:20 46° WNW 04:13:42 45° W
Spot 4 Rocket 4.5 04:09:14 10° N 04:14:06 43° WNW 04:14:23 42° W
Cosmos 990 Rocket 3.8 04:11:37 10° NNW 04:16:48 86° WSW 04:20:38 18° SSE
USA 238 DEB 3.6 04:17:41 39° SSW 04:20:29 89° WNW 04:27:30 10° NNE
USA 238 3.6 04:17:45 39° SSW 04:20:36 89° NW 04:27:36 10° NNE
Cosmos 1814 Rocket 3.9 04:20:49 52° SW 04:21:57 69° WNW 04:27:08 10° NNE
Cosmos 2266 Rocket 4.1 04:17:59 10° N 04:24:04 73° E 04:30:13 10° SSE
Cosmos 1758 4.2 04:21:20 10° N 04:25:13 48° E 04:28:58 10° SSE
Cosmos 1655 Rocket 4.1 04:19:03 10° NNW 04:25:14 55° W 04:27:55 33° SSW
Cosmos 44 Rocket 4.3 04:20:57 10° NNW 04:25:58 51° NE 04:31:01 10° SE
Helios 1A Rocket 3.6 04:23:40 10° N 04:27:22 37° WNW 04:27:22 37° WNW
DNEPR-1 R/B 4.0 04:26:52 37° S 04:28:10 54° ESE 04:32:30 10° NE
CZ-2D R/B 3.5 04:24:10 10° NNW 04:28:15 22° WNW 04:28:40 22° WNW
CZ-2D R/B 3.7 04:24:48 10° N 04:28:45 49° WNW 04:28:56 48° W
Cosmos 2150 Rocket 4.0 04:24:50 10° NNW 04:30:21 89° WSW 04:35:47 10° SSE
Cosmos 1733 4.0 04:31:23 10° N 04:35:11 51° E 04:38:57 10° SSE
Meteor 1-21 4.2 04:33:26 35° SSW 04:35:47 63° W 04:41:22 10° N
SL-16 R/B 3.9 04:36:53 20° W 04:36:53 20° W 04:40:23 10° NW
Cosmos 1726 Rocket 4.3 04:32:09 10° NNW 04:35:31 33° WNW 04:35:31 33° WNW
Cosmos 2298 Rocket 3.9 04:32:13 10° NNW 04:37:30 68° WSW 04:42:45 10° S
Cosmos 2360 Rocket 3.9 04:33:02 10° N 04:38:10 35° ENE 04:43:15 10° SE
Cosmos 1980 Rocket 3.1 04:35:45 10° NW 04:39:51 28° W 04:39:51 28° W
PSLV R/B 4.2 04:39:22 10° NNE 04:43:29 51° E 04:47:09 12° S
Meteor 2-11 Rocket 4.4 04:41:35 19° SSW 04:46:11 78° W 04:52:22 10° N
ADEOS II 2.1 04:44:04 10° N 04:49:15 63° WNW 04:52:21 24° SSW
Cosmos 2082 Rocket 4.3 04:48:57 10° WNW 04:50:30 11° NW 04:52:04 10° NNW
Cosmos 841 Rocket 3.7 04:48:22 31° SW 04:50:35 51° WNW 04:55:40 10° N
ADEOS 4.3 04:46:37 10° N 04:51:21 36° WNW 04:53:17 27° WSW
Cosmos 1812 Rocket 4.0 04:48:44 10° N 04:53:11 66° E 04:57:35 10° SSE
UNKNOWN OBJECT B 4.1 04:50:36 10° NNW 04:53:39 23° WNW 04:53:49 23° WNW
SL-16 R/B 2.1 04:48:11 10° NNW 04:53:50 71° WSW 04:59:27 10° SSE
CZ-4B R/B 3.7 04:51:28 10° NNE 04:55:34 50° E 04:59:25 10° S
Cosmos 1602 Rocket 3.4 04:53:48 23° SSW 04:56:27 70° W 05:00:47 10° N
Cosmos 2058 Rocket 3.9 04:53:30 10° NNW 04:57:21 30° W 04:58:12 28° WSW
NOSS 3-2 (C) 3.6 04:53:14 18° SSW 04:57:42 71° ESE 05:04:06 10° NE
Cosmos 1470 2.8 04:56:55 10° N 05:00:55 84° E 05:04:53 10° S
Cosmos 2228 4.1 04:57:50 10° NW 05:01:15 24° W 05:01:28 24° W
Resurs 1-4 Rocket 4.2 05:02:58 10° NW 05:03:24 10° WNW 05:03:50 10° WNW
Cosmos 540 Rocket 3.5 05:02:53 19° SSW 05:06:30 65° WNW 05:11:38 10° NNE
ATLAS 3B R/B 3.1 05:03:31 20° WSW 05:08:26 53° NW 05:15:12 10° NNE
Cosmos 1626 Rocket 3.9 05:06:34 22° SW 05:08:58 43° W 05:13:06 10° N
Cosmos 2322 Rocket 2.2 05:03:48 10° NNW 05:09:18 55° WSW 05:14:44 10° S
USA 161 3.9 05:08:55 10° SE 05:11:35 28° ENE 05:14:12 10° NNE
NOSS 3-2 (A) 3.5 05:10:13 18° SW 05:14:36 64° NW 05:21:04 10° NNE
Cosmos 1833 4.2 05:10:34 12° SSW 05:16:04 83° WNW 05:21:54 10° NNE
Cosmos 1707 2.6 05:13:05 10° SSW 05:16:52 71° W 05:20:45 10° N
SJ 16-02 1.3 05:12:31 10° NNW 05:16:57 82° WSW 05:21:21 10° SSE
Cosmos 1378 3.4 05:14:36 17° SSW 05:17:15 47° W 05:20:54 10° N
MOS 1-B 4.3 05:15:07 10° NNE 05:20:57 80° WNW 05:26:45 10° SSW
BREEZE-M DEB (TANK) 4.2 05:19:03 10° SSW 05:22:49 34° SE 05:26:14 10° ENE
ATLAS CENTAUR R/B 2.7 05:18:38 10° NNW 05:22:56 49° NE 05:27:29 10° SE
USA 215 3.5 05:20:30 10° NE 05:26:55 61° NW 05:32:57 12° WSW
CENTAUR R/B 3.2 05:23:22 10° S 05:28:57 52° ESE 05:35:20 10° NE
Meteor 1-31 Rocket 3.1 05:30:23 10° NNE 05:34:15 68° E 05:38:04 10° S
CZ-4B R/B 3.6 05:28:51 10° NNE 05:34:23 67° ESE 05:39:47 10° S
H-II Stage 2 4.4 05:30:22 12° SW 05:35:12 44° SSE 06:04:26 10° E
Cosmos 1953 3.2 05:31:47 10° NNW 05:35:19 29° W 05:38:49 10° SSW
PSLV R/B 3.9 05:32:19 10° N 05:36:05 52° WNW 05:39:44 10° SSW
Cosmos 44 4.4 05:33:51 10° NW 05:38:11 26° WSW 05:42:35 10° SSW
Cosmos 1553 Rocket 4.1 05:32:27 10° S 05:38:52 89° W 05:45:19 10° N
CZ-3C R/B 3.7 05:36:27 10° S 05:39:26 14° SE 05:45:16 10° ESE
Cosmos 1400 Rocket 3.6 05:35:46 10° S 05:39:35 55° E 05:43:28 10° NNE
Cosmos 783 Rocket 4.5 05:38:09 10° SSW 05:43:21 80° WNW 05:48:36 10° NNE
IDEFIX/ARIANE 42P 3.8 05:40:31 10° NNE 05:45:32 45° E 05:50:32 10° S
Cosmos 1125 Rocket 3.7 05:40:55 10° NNW 05:46:05 53° WSW 05:51:11 10° S
Cosmos 2292 Rocket 2.9 05:44:03 10° N 05:47:38 83° E 05:50:39 10° S
Aureole 2 Rocket 3.0 05:45:22 10° NW 05:48:53 38° WSW 05:52:10 10° S
Meteor 1-28 Rocket 3.1 05:45:36 10° S 05:49:18 70° W 05:53:04 10° NNW
Cosmos 2237 4.2 05:44:57 10° NNW 05:50:42 85° WSW 05:56:25 10° SSE
Cosmos 2322 3.7 05:46:02 10° NNW 05:51:46 80° WSW 05:57:28 10° SSE
PSLV R/B 2.9 05:50:06 10° WSW 05:53:04 88° NNW 05:56:05 10° ENE
Meteor PRIRODA 3.7 05:49:55 10° N 05:53:35 64° WNW 05:57:15 10° SSW
CZ-4B R/B 3.8 05:50:11 10° N 05:54:00 70° WNW 05:57:57 10° SSW
CZ-4B DEB 4.3 05:50:10 10° N 05:55:41 67° WNW 06:01:09 10° SSW
Cosmos-2242 3.3 05:51:57 10° N 05:56:14 74° E 06:00:28 10° SSE
